Regional Weather Roundup
Issued by NWS

Home | Current Version | Previous Version | Graphics & Text | Print | Product List | Glossary Off
Versions: 1 2 3 4 5 6 7 8 9 10 11 12 13 14 15 16 17 18 19 20 21 22 23 24 25 26 27 28 29 30 31 32 33 34 35 36 37 38 39 40 41 42 43 44 45 46 47 48 49 50

000
ASUS43 KIND 172109
RWRIN

WEATHER ROUNDUP FOR INDIANA
NATIONAL WEATHER SERVICE INDIANAPOLIS IN
500 PM EDT THU AUG 17 2017

NOTE: "FAIR" INDICATES FEW OR NO CLOUDS BELOW 12,000 FEET WITH NO
SIGNIFICANT WEATHER AND/OR OBSTRUCTIONS TO VISIBILITY.

* - STATION DOES NOT REPORT WEATHER SUCH AS PRECIPITATION OR FOG.

+ - STATION NOT QUALITY CONTROLLED BY THE NATIONAL WEATHER SERVICE.
    USE DATA WITH CAUTION...ESPECIALLY DEWPOINT AND RELATIVE
    HUMIDITY OBSERVATIONS.

INZ001>003-010>013-019-020-172200-
NORTHWEST INDIANA

CITY           SKY/WX    TMP DP  RH WIND       PRES   REMARKS
GARY /AIRPORT/ PTSUNNY   82  63  51 SW22G33   29.75R
KNOX *+        MOSUNNY   81  66  61 SW17G23   29.76S
LA PORTE +     CLOUDY    80  67  65 SW15G23   29.76F
VALPARAISO     CLOUDY    81  68  64 SW22      29.76F

$$

LMZ046-743>745-172200-
SOUTHERN LAKE MICHIGAN

STATION/POSITION TIME  TEMP    WIND        PRES    WAVE
                       AIR SEA DIR/SP/G            HT
                 (UTC) (F)     (DEG/KT/KT) (MB)    (FT)
BURNS HARBOR     2040   80     240/ 16/ 24 1007.5F
MICHIGAN CITY    2040   79     210/ 22/ 24   N/A
5NW MICH CITY    2100   78 75  230/ 16/ 19   N/A     3

$$

INZ004-005-014>016-021>024-172200-
NORTH CENTRAL INDIANA

CITY           SKY/WX    TMP DP  RH WIND       PRES   REMARKS
ELKHART        CLOUDY    82  68  61 SW12G17   29.74F
GOSHEN         PTSUNNY   82  68  62 SW17G25   29.75F
LOGANSPORT +   CLOUDY    81  68  65 SW22G28   29.80S
PERU/GRISSOM   MOSUNNY   82  71  68 W17       29.79S
ROCHESTER +    PTSUNNY   82  70  65 SW14      29.78F
SOUTH BEND     CLOUDY    83  67  58 SW18G29   29.75S
WARSAW +       PTSUNNY   81  70  69 W10G17    29.77S

$$

INZ006>009-017-018-025>027-172200-
NORTHEAST INDIANA

CITY           SKY/WX    TMP DP  RH WIND       PRES   REMARKS
AUBURN +       MOSUNNY   82  64  54 SW9       29.78S
FORT WAYNE     MOSUNNY   84  67  56 W18G24    29.78F
HUNTINGTON +   MOSUNNY   83  69  61 W15G22    29.79S

$$

INZ028-029-035-036-043>045-051>053-172200-
WEST CENTRAL INDIANA

CITY           SKY/WX    TMP DP  RH WIND       PRES   REMARKS
LAFAYETTE      MOSUNNY   84  70  62 SW13G24   29.78F
TERRE HAUTE    CLOUDY    85  71  63 SW13      29.83F

$$

INZ030>032-037>040-046>048-054>057-064-065-172200-
CENTRAL INDIANA

CITY           SKY/WX    TMP DP  RH WIND       PRES   REMARKS
CP ATTERBURY + MOSUNNY   86  64  48 W10G22    29.84S
COLUMBUS       MOSUNNY   84  66  54 W13       29.84F
FRANKFORT +    PTSUNNY   84  72  65 W14G20    29.83S
GREENWOOD *+   MOSUNNY   85  65  50 W13G21    29.84S
INDIANAPOLIS   PTSUNNY   84  68  58 SW17      29.83R
-EAGLE CREEK   MOSUNNY   84  68  58 W8G17     29.82S
KOKOMO +       PTSUNNY   82  71  69 W13G21    29.81F
MARION +       CLOUDY    81  70  69 W13G18    29.82S
MT COMFORT *+  PTSUNNY   82  68  61 SW13      29.84S
SHELBYVILLE    SUNNY     86  68  54 SW13      29.83S
ZIONSVILLE +   PTSUNNY   82  70  66 SW12G18   29.83S

$$

INZ033-034-041-042-049-050-058-059-172200-
EAST CENTRAL INDIANA

CITY           SKY/WX    TMP DP  RH WIND       PRES   REMARKS
MUNCIE         PTSUNNY   85  68  56 W7        29.82R

$$

INZ060-061-067>069-081>083-085>088-172200-
SOUTHWEST INDIANA

CITY           SKY/WX    TMP DP  RH WIND       PRES   REMARKS
EVANSVILLE     CLOUDY    87  68  52 SW14      29.86S
HUNTINGBURG +  MOSUNNY   87  70  56 SW14      29.85F
WASHINGTON +   MOSUNNY   87  67  52 MISG      29.84F

$$

INZ062-063-066-070>080-084-089>092-172200-
SOUTH CENTRAL AND SOUTHEAST INDIANA

CITY           SKY/WX    TMP DP  RH WIND       PRES   REMARKS
BEDFORD +      MOSUNNY   86  64  48 W13G23    29.85S
BLOOMINGTON    SUNNY     86  65  49 W13G22    29.85F
MADISON *+     CLOUDY    82  73  74 S7        29.89S
NORTH VERNON + MOSUNNY   84  72  65 SW12G17   29.85F
SEYMOUR +      PTSUNNY   88  68  51 SW15G22   29.84S

$$




USA.gov is the U.S. government's official web portal to all federal, state and local government web resources and services.